STARLINK-36877

Last updated on Tue Mar 24 2026 00:02:05 GMT+0000 (Coordinated Universal Time)

1 67896U 26035T 26082.50003471 -.01970810 00000+0 -13510-1 0 9998 2 67896 97.2860 15.6577 0001793 104.4713 225.5010 15.77916232 5981

Satellite not in orbit